| time (UTC) | temp F | wind direction | speed MPH | gust MPH | rain 1hr in | rain 24hr in | rain mn in | humidity % | barometer mb |
| 20260506182537 | 57 | 67 | 2.0 | 10.0 | 0.02 | 0.02 | 0.02 | 94 | 1008.8 |
| 20260506182037 | 58 | 59 | 4.0 | 11.0 | 0.02 | 0.02 | 0.02 | 94 | 1009.0 |
| 20260506181538 | 58 | 327 | 4.0 | 14.0 | 0.02 | 0.02 | 0.02 | 93 | 1009.0 |
| 20260506181035 | 58 | 45 | 4.0 | 14.0 | 0.01 | 0.01 | 0.01 | 93 | 1009.0 |
| 20260506180535 | 58 | 67 | 5.0 | 17.0 | 0.01 | 0.01 | 0.01 | 92 | 1009.2 |
| 20260506180045 | 58 | 82 | 4.0 | 17.0 | 0.01 | 0.01 | 0.01 | 92 | 1009.3 |
| 20260506175535 | 59 | 63 | 4.0 | 16.0 | 0.01 | 0.01 | 0.01 | 91 | 1009.7 |
| 20260506175033 | 59 | 100 | 7.0 | 16.0 | 0.00 | 0.00 | 0.00 | 89 | 1009.7 |
| 20260506174532 | 60 | 82 | 7.0 | 13.0 | 0.00 | 0.00 | 0.00 | 88 | 1009.7 |
| 20260506174032 | 60 | 100 | 4.0 | 13.0 | 0.00 | 0.00 | 0.00 | 87 | 1009.7 |
| 20260506173533 | 60 | 123 | 7.0 | 13.0 | 0.00 | 0.00 | 0.00 | 87 | 1009.8 |
| 20260506173032 | 61 | 84 | 4.0 | 12.0 | 0.00 | 0.00 | 0.00 | 86 | 1009.8 |
| 20260506172530 | 61 | 95 | 4.0 | 15.0 | 0.00 | 0.00 | 0.00 | 85 | 1009.8 |
| 20260506172034 | 61 | 91 | 7.0 | 19.0 | 0.00 | 0.00 | 0.00 | 83 | 1010.0 |
| 20260506171545 | 62 | 105 | 9.0 | 19.0 | 0.00 | 0.00 | 0.00 | 82 | 1010.0 |
| 20260506171030 | 62 | 46 | 4.0 | 11.0 | 0.00 | 0.00 | 0.00 | 83 | 1010.0 |
| 20260506170530 | 62 | 82 | 6.0 | 18.0 | 0.00 | 0.00 | 0.00 | 82 | 1009.9 |
| 20260506170029 | 62 | 63 | 7.0 | 19.0 | 0.00 | 0.00 | 0.00 | 82 | 1010.0 |
| 20260506165529 | 63 | 100 | 8.0 | 16.0 | 0.00 | 0.00 | 0.00 | 82 | 1009.9 |
| 20260506165032 | 63 | 38 | 10.0 | 20.0 | 0.00 | 0.00 | 0.00 | 81 | 1010.0 |
| 20260506164528 | 63 | 74 | 12.0 | 21.0 | 0.00 | 0.00 | 0.00 | 81 | 1010.0 |
| 20260506164027 | 63 | 51 | 10.0 | 21.0 | 0.00 | 0.00 | 0.00 | 80 | 1010.1 |
| 20260506163527 | 64 | 39 | 4.0 | 18.0 | 0.00 | 0.00 | 0.00 | 81 | 1010.2 |
| 20260506163031 | 63 | 86 | 9.0 | 18.0 | 0.00 | 0.00 | 0.00 | 81 | 1010.1 |
| 20260506162526 | 64 | 13 | 7.0 | 17.0 | 0.00 | 0.00 | 0.00 | 80 | 1010.1 |
| 20260506162027 | 63 | 95 | 5.0 | 17.0 | 0.00 | 0.00 | 0.00 | 81 | 1010.1 |
| 20260506161536 | 63 | 113 | 6.0 | 19.0 | 0.00 | 0.00 | 0.00 | 80 | 1010.1 |
| 20260506161026 | 64 | 57 | 7.0 | 19.0 | 0.00 | 0.00 | 0.00 | 79 | 1010.4 |
| 20260506160529 | 64 | 69 | 6.0 | 14.0 | 0.00 | 0.00 | 0.00 | 80 | 1010.4 |
| 20260506160026 | 64 | 95 | 6.0 | 14.0 | 0.00 | 0.00 | 0.00 | 79 | 1010.4 |
| 20260506155526 | 64 | 61 | 6.0 | 17.0 | 0.00 | 0.00 | 0.00 | 78 | 1010.6 |
| 20260506155026 | 65 | 26 | 6.0 | 17.0 | 0.00 | 0.00 | 0.00 | 78 | 1010.5 |
| 20260506154525 | 65 | 50 | 5.0 | 15.0 | 0.00 | 0.00 | 0.00 | 78 | 1010.4 |
| 20260506154025 | 66 | 55 | 5.0 | 15.0 | 0.00 | 0.00 | 0.00 | 77 | 1010.4 |
| 20260506153526 | 66 | 109 | 7.0 | 16.0 | 0.00 | 0.00 | 0.00 | 76 | 1010.3 |
| 20260506153024 | 66 | 84 | 6.0 | 19.0 | 0.00 | 0.00 | 0.00 | 77 | 1010.3 |
| 20260506152525 | 66 | 76 | 11.0 | 23.0 | 0.00 | 0.00 | 0.00 | 76 | 1010.3 |
| 20260506152024 | 66 | 74 | 11.0 | 23.0 | 0.00 | 0.00 | 0.00 | 75 | 1010.4 |
| 20260506151526 | 66 | 146 | 7.0 | 19.0 | 0.00 | 0.00 | 0.00 | 77 | 1010.3 |
| 20260506151023 | 66 | 95 | 12.0 | 19.0 | 0.00 | 0.00 | 0.00 | 76 | 1010.2 |
| 20260506150524 | 66 | 67 | 7.0 | 17.0 | 0.00 | 0.00 | 0.00 | 76 | 1010.5 |
| 20260506150026 | 66 | 63 | 8.0 | 14.0 | 0.00 | 0.00 | 0.00 | 75 | 1010.4 |
| 20260506145525 | 67 | 75 | 6.0 | 15.0 | 0.00 | 0.00 | 0.00 | 75 | 1010.6 |
| 20260506145022 | 67 | 69 | 7.0 | 21.0 | 0.00 | 0.00 | 0.00 | 76 | 1010.5 |
| 20260506144521 | 67 | 51 | 12.0 | 21.0 | 0.00 | 0.00 | 0.00 | 75 | 1010.4 |
| 20260506144020 | 66 | 13 | 7.0 | 19.0 | 0.00 | 0.00 | 0.00 | 76 | 1010.4 |
| 20260506143520 | 66 | 73 | 9.0 | 20.0 | 0.00 | 0.00 | 0.00 | 75 | 1010.5 |
| 20260506143019 | 66 | 49 | 6.0 | 21.0 | 0.00 | 0.00 | 0.00 | 76 | 1010.5 |
| 20260506142517 | 66 | 48 | 8.0 | 25.0 | 0.00 | 0.00 | 0.00 | 76 | 1010.7 |
| 20260506142017 | 66 | 88 | 9.0 | 21.0 | 0.00 | 0.00 | 0.00 | 79 | 1010.9 |
| 20260506141516 | 66 | 85 | 8.0 | 18.0 | 0.00 | 0.00 | 0.00 | 79 | 1010.9 |
| 20260506141015 | 65 | 112 | 7.0 | 16.0 | 0.00 | 0.00 | 0.00 | 78 | 1010.8 |
| 20260506140514 | 65 | 51 | 8.0 | 16.0 | 0.00 | 0.00 | 0.00 | 78 | 1010.8 |
| 20260506140013 | 65 | 86 | 10.0 | 16.0 | 0.00 | 0.00 | 0.00 | 79 | 1010.6 |
| 20260506135513 | 65 | 71 | 8.0 | 16.0 | 0.00 | 0.00 | 0.00 | 78 | 1010.7 |
| 20260506135020 | 65 | 70 | 6.0 | 16.0 | 0.00 | 0.00 | 0.00 | 79 | 1010.7 |
| 20260506134521 | 64 | 78 | 8.0 | 16.0 | 0.00 | 0.00 | 0.00 | 79 | 1010.5 |
| 20260506134010 | 64 | 95 | 7.0 | 14.0 | 0.00 | 0.00 | 0.00 | 80 | 1010.6 |
| 20260506133511 | 64 | 11 | 7.0 | 17.0 | 0.00 | 0.00 | 0.00 | 79 | 1010.5 |
| 20260506133008 | 64 | 77 | 6.0 | 19.0 | 0.00 | 0.00 | 0.00 | 81 | 1010.7 |
| 20260506132507 | 64 | 71 | 3.0 | 19.0 | 0.00 | 0.00 | 0.00 | 82 | 1010.6 |
| 20260506132007 | 63 | 80 | 7.0 | 18.0 | 0.00 | 0.00 | 0.00 | 81 | 1010.5 |
| 20260506131505 | 63 | 34 | 7.0 | 18.0 | 0.00 | 0.00 | 0.00 | 82 | 1010.5 |
| 20260506131005 | 63 | 59 | 6.0 | 18.0 | 0.00 | 0.00 | 0.00 | 82 | 1010.8 |
| 20260506130504 | 63 | 45 | 8.0 | 18.0 | 0.00 | 0.00 | 0.00 | 82 | 1010.7 |
| 20260506130005 | 63 | 63 | 7.0 | 19.0 | 0.00 | 0.00 | 0.00 | 83 | 1010.7 |
| 20260506125503 | 63 | 82 | 7.0 | 15.0 | 0.00 | 0.00 | 0.00 | 82 | 1011.0 |
| 20260506125101 | 63 | 105 | 8.0 | 16.0 | 0.00 | 0.00 | 0.00 | 83 | 1011.1 |
| 20260506124609 | 63 | 100 | 8.0 | 17.0 | 0.00 | 0.00 | 0.00 | 84 | 1011.1 |
| 20260506124058 | 62 | 95 | 7.0 | 17.0 | 0.00 | 0.00 | 0.00 | 86 | 1011.2 |
| 20260506123557 | 62 | 36 | 7.0 | 16.0 | 0.00 | 0.00 | 0.00 | 85 | 1011.1 |
| 20260506123056 | 61 | 110 | 11.0 | 16.0 | 0.00 | 0.00 | 0.00 | 87 | 1011.0 |
| 20260506122553 | 60 | 51 | 7.0 | 15.0 | 0.00 | 0.00 | 0.00 | 89 | 1011.1 |
| 20260506122053 | 59 | 78 | 7.0 | 12.0 | 0.00 | 0.00 | 0.00 | 88 | 1011.1 |
| 20260506121601 | 59 | 86 | 5.0 | 12.0 | 0.00 | 0.00 | 0.00 | 89 | 1011.1 |
| 20260506121051 | 59 | 75 | 5.0 | 12.0 | 0.00 | 0.00 | 0.00 | 89 | 1011.1 |
| 20260506120551 | 59 | 78 | 6.0 | 12.0 | 0.00 | 0.00 | 0.00 | 89 | 1011.2 |
| 20260506120051 | 59 | 43 | 3.0 | 12.0 | 0.00 | 0.00 | 0.00 | 89 | 1011.1 |
| 20260506115551 | 59 | 62 | 3.0 | 12.0 | 0.00 | 0.00 | 0.00 | 90 | 1011.1 |
| 20260506115049 | 58 | 61 | 4.0 | 15.0 | 0.00 | 0.00 | 0.00 | 90 | 1010.9 |
| 20260506114553 | 58 | 67 | 7.0 | 15.0 | 0.00 | 0.00 | 0.00 | 90 | 1011.0 |
| 20260506114048 | 58 | 51 | 5.0 | 16.0 | 0.00 | 0.00 | 0.00 | 91 | 1010.9 |
| 20260506113548 | 58 | 75 | 5.0 | 16.0 | 0.00 | 0.00 | 0.00 | 91 | 1010.9 |
| 20260506113047 | 58 | 91 | 5.0 | 12.0 | 0.00 | 0.00 | 0.00 | 91 | 1011.2 |
| 20260506112547 | 58 | 70 | 4.0 | 12.0 | 0.00 | 0.00 | 0.00 | 92 | 1011.2 |
| 20260506112045 | 57 | 60 | 8.0 | 12.0 | 0.00 | 0.00 | 0.00 | 91 | 1011.3 |
| 20260506111554 | 57 | 95 | 5.0 | 15.0 | 0.00 | 0.00 | 0.00 | 92 | 1011.2 |
| 20260506111044 | 57 | 49 | 7.0 | 15.0 | 0.00 | 0.00 | 0.00 | 92 | 1011.2 |
| 20260506110546 | 57 | 60 | 6.0 | 12.0 | 0.00 | 0.00 | 0.00 | 93 | 1011.0 |
| 20260506110043 | 57 | 95 | 6.0 | 12.0 | 0.00 | 0.00 | 0.00 | 93 | 1011.2 |
| 20260506105544 | 56 | 73 | 4.0 | 14.0 | 0.00 | 0.00 | 0.00 | 93 | 1011.2 |
| 20260506105042 | 56 | 95 | 3.0 | 14.0 | 0.00 | 0.00 | 0.00 | 93 | 1011.2 |
| 20260506104542 | 56 | 84 | 4.0 | 12.0 | 0.00 | 0.00 | 0.00 | 93 | 1011.2 |
| 20260506104040 | 56 | 52 | 5.0 | 12.0 | 0.00 | 0.00 | 0.00 | 94 | 1011.2 |
| 20260506103540 | 56 | 87 | 5.0 | 11.0 | 0.00 | 0.00 | 0.00 | 94 | 1011.0 |
| 20260506103039 | 56 | 57 | 4.0 | 13.0 | 0.00 | 0.00 | 0.00 | 94 | 1011.1 |
| 20260506102538 | 56 | 86 | 7.0 | 14.0 | 0.00 | 0.00 | 0.00 | 94 | 1011.1 |
| 20260506102039 | 56 | 70 | 6.0 | 14.0 | 0.00 | 0.00 | 0.00 | 93 | 1011.0 |
| 20260506101537 | 56 | 71 | 6.0 | 14.0 | 0.00 | 0.00 | 0.00 | 93 | 1011.1 |
| 20260506101036 | 56 | 51 | 7.0 | 12.0 | 0.00 | 0.00 | 0.00 | 93 | 1011.0 |
| 20260506100536 | 56 | 69 | 3.0 | 14.0 | 0.00 | 0.00 | 0.00 | 93 | 1011.0 |
| 20260506100036 | 56 | 95 | 4.0 | 14.0 | 0.00 | 0.00 | 0.00 | 93 | 1011.0 |
| 20260506095536 | 56 | 82 | 3.0 | 10.0 | 0.00 | 0.00 | 0.00 | 93 | 1011.0 |
| 20260506095037 | 56 | 83 | 3.0 | 12.0 | 0.00 | 0.00 | 0.00 | 93 | 1011.0 |
| 20260506094533 | 56 | 82 | 3.0 | 13.0 | 0.00 | 0.00 | 0.00 | 92 | 1010.9 |
| 20260506094034 | 56 | 40 | 7.0 | 12.0 | 0.00 | 0.00 | 0.00 | 92 | 1011.0 |
| 20260506093531 | 56 | 64 | 6.0 | 13.0 | 0.00 | 0.00 | 0.00 | 92 | 1011.0 |
| 20260506093031 | 56 | 56 | 5.0 | 15.0 | 0.00 | 0.00 | 0.00 | 92 | 1011.0 |
| 20260506092531 | 56 | 74 | 4.0 | 15.0 | 0.00 | 0.00 | 0.00 | 92 | 1011.0 |
| 20260506092030 | 56 | 42 | 6.0 | 15.0 | 0.00 | 0.00 | 0.00 | 92 | 1011.0 |
| 20260506091530 | 56 | 61 | 6.0 | 15.0 | 0.00 | 0.00 | 0.00 | 92 | 1011.0 |
| 20260506091030 | 56 | 95 | 8.0 | 15.0 | 0.00 | 0.00 | 0.00 | 92 | 1011.1 |
| 20260506090528 | 56 | 55 | 7.0 | 15.0 | 0.00 | 0.00 | 0.00 | 91 | 1011.1 |
| 20260506090029 | 56 | 69 | 7.0 | 15.0 | 0.00 | 0.00 | 0.00 | 91 | 1011.1 |
| 20260506085529 | 56 | 64 | 7.0 | 14.0 | 0.00 | 0.00 | 0.00 | 91 | 1011.2 |
| 20260506085028 | 56 | 86 | 5.0 | 11.0 | 0.00 | 0.00 | 0.00 | 91 | 1011.2 |
| 20260506084528 | 56 | 44 | 6.0 | 15.0 | 0.00 | 0.00 | 0.00 | 91 | 1011.2 |
| 20260506084027 | 56 | 63 | 6.0 | 17.0 | 0.00 | 0.00 | 0.00 | 91 | 1011.1 |
| 20260506083527 | 56 | 69 | 7.0 | 17.0 | 0.00 | 0.00 | 0.00 | 91 | 1011.2 |
| 20260506083027 | 56 | 100 | 5.0 | 14.0 | 0.00 | 0.00 | 0.00 | 90 | 1011.2 |
| 20260506082527 | 56 | 65 | 5.0 | 13.0 | 0.00 | 0.00 | 0.00 | 90 | 1011.1 |
| 20260506082025 | 57 | 55 | 7.0 | 15.0 | 0.00 | 0.00 | 0.00 | 90 | 1011.1 |
| 20260506081531 | 57 | 95 | 5.0 | 16.0 | 0.00 | 0.00 | 0.00 | 90 | 1011.1 |
| 20260506081028 | 57 | 63 | 9.0 | 16.0 | 0.00 | 0.00 | 0.00 | 90 | 1011.3 |
| 20260506080525 | 57 | 90 | 8.0 | 16.0 | 0.00 | 0.00 | 0.00 | 90 | 1011.2 |
| 20260506073522 | 57 | 76 | 8.0 | 19.0 | 0.00 | 0.00 | 0.00 | 89 | 1011.3 |
| 20260506073020 | 57 | 105 | 6.0 | 16.0 | 0.00 | 0.00 | 0.00 | 89 | 1011.3 |
| 20260506072524 | 57 | 52 | 7.0 | 17.0 | 0.00 | 0.00 | 0.00 | 89 | 1011.2 |
| 20260506072018 | 57 | 95 | 7.0 | 21.0 | 0.00 | 0.00 | 0.00 | 89 | 1011.4 |
| 20260506071518 | 57 | 85 | 10.0 | 21.0 | 0.00 | 0.00 | 0.00 | 88 | 1011.3 |
| 20260506071017 | 57 | 95 | 6.0 | 19.0 | 0.00 | 0.00 | 0.00 | 88 | 1011.3 |
| 20260506070516 | 57 | 63 | 7.0 | 22.0 | 0.00 | 0.00 | 0.00 | 88 | 1011.2 |
| 20260506062511 | 58 | 100 | 8.0 | 17.0 | 0.00 | 0.00 | 0.00 | 87 | 1011.2 |
| 20260506062012 | 58 | 57 | 7.0 | 16.0 | 0.00 | 0.00 | 0.00 | 86 | 1011.2 |
| 20260506061511 | 58 | 75 | 8.0 | 18.0 | 0.00 | 0.00 | 0.00 | 86 | 1011.1 |
| 20260506061014 | 58 | 84 | 9.0 | 21.0 | 0.00 | 0.00 | 0.00 | 86 | 1011.2 |
| 20260506060509 | 58 | 57 | 11.0 | 21.0 | 0.00 | 0.00 | 0.00 | 86 | 1011.2 |
| 20260506051059 | 59 | 105 | 7.0 | 22.0 | 0.00 | 0.00 | 0.00 | 84 | 1011.8 |
| 20260506050557 | 59 | 100 | 10.0 | 22.0 | 0.00 | 0.00 | 0.00 | 84 | 1011.7 |
| 20260506050111 | 59 | 44 | 7.0 | 18.0 | 0.00 | 0.00 | 0.00 | 84 | 1011.8 |
| 20260506045059 | 59 | 78 | 8.0 | 16.0 | 0.00 | 0.00 | 0.00 | 84 | 1011.9 |
| 20260506044557 | 59 | 82 | 6.0 | 19.0 | 0.00 | 0.00 | 0.00 | 83 | 1011.8 |
| 20260506044053 | 59 | 76 | 9.0 | 19.0 | 0.00 | 0.00 | 0.00 | 83 | 1011.9 |
| 20260506043552 | 59 | 62 | 11.0 | 18.0 | 0.00 | 0.00 | 0.00 | 83 | 1011.9 |
| 20260506043056 | 59 | 57 | 8.0 | 18.0 | 0.00 | 0.00 | 0.00 | 83 | 1011.8 |
| 20260506042550 | 59 | 51 | 10.0 | 18.0 | 0.00 | 0.00 | 0.00 | 83 | 1011.8 |
| 20260506042050 | 60 | 40 | 7.0 | 17.0 | 0.00 | 0.00 | 0.00 | 83 | 1011.7 |
| 20260506041548 | 60 | 23 | 11.0 | 21.0 | 0.00 | 0.00 | 0.00 | 82 | 1011.7 |
| 20260506041047 | 60 | 105 | 7.0 | 21.0 | 0.00 | 0.00 | 0.00 | 82 | 1011.8 |
| 20260506040550 | 60 | 88 | 8.0 | 23.0 | 0.00 | 0.00 | 0.00 | 81 | 1011.7 |
| 20260506040046 | 60 | 114 | 11.0 | 23.0 | 0.00 | 0.00 | 0.00 | 81 | 1011.8 |
| 20260506035546 | 60 | 105 | 6.0 | 18.0 | 0.00 | 0.00 | 0.00 | 81 | 1011.8 |
| 20260506035044 | 60 | 32 | 9.0 | 17.0 | 0.00 | 0.00 | 0.00 | 80 | 1011.7 |
| 20260506034543 | 60 | 95 | 8.0 | 22.0 | 0.00 | 0.00 | 0.00 | 80 | 1011.8 |
| 20260506034042 | 60 | 75 | 13.0 | 22.0 | 0.00 | 0.00 | 0.00 | 79 | 1011.8 |
| 20260506033542 | 61 | 85 | 8.0 | 27.0 | 0.00 | 0.00 | 0.00 | 79 | 1011.6 |
| 20260506033041 | 61 | 39 | 12.0 | 27.0 | 0.00 | 0.00 | 0.00 | 79 | 1011.7 |
| 20260506032540 | 61 | 64 | 13.0 | 22.0 | 0.00 | 0.00 | 0.00 | 78 | 1011.7 |
| 20260506032039 | 61 | 86 | 13.0 | 22.0 | 0.00 | 0.00 | 0.00 | 77 | 1011.6 |
| 20260506031540 | 61 | 95 | 12.0 | 25.0 | 0.00 | 0.00 | 0.00 | 77 | 1011.5 |
| 20260506031039 | 61 | 122 | 11.0 | 25.0 | 0.00 | 0.00 | 0.00 | 77 | 1011.5 |
| 20260506030538 | 61 | 111 | 10.0 | 23.0 | 0.00 | 0.00 | 0.00 | 76 | 1011.5 |
| 20260506030037 | 61 | 100 | 12.0 | 22.0 | 0.00 | 0.00 | 0.00 | 76 | 1011.5 |
| 20260506025538 | 61 | 57 | 9.0 | 22.0 | 0.00 | 0.00 | 0.00 | 76 | 1011.5 |
| 20260506025036 | 61 | 73 | 11.0 | 22.0 | 0.00 | 0.00 | 0.00 | 76 | 1011.5 |
| 20260506024539 | 61 | 113 | 10.0 | 20.0 | 0.00 | 0.00 | 0.00 | 76 | 1011.5 |
| 20260506024034 | 61 | 138 | 7.0 | 17.0 | 0.00 | 0.00 | 0.00 | 76 | 1011.5 |
| 20260506023532 | 61 | 176 | 8.0 | 17.0 | 0.00 | 0.00 | 0.00 | 76 | 1011.6 |
| 20260506023033 | 61 | 46 | 8.0 | 21.0 | 0.00 | 0.00 | 0.00 | 76 | 1011.6 |
| 20260506022535 | 61 | 62 | 10.0 | 18.0 | 0.00 | 0.00 | 0.00 | 76 | 1011.5 |
| 20260506022031 | 61 | 79 | 7.0 | 17.0 | 0.00 | 0.00 | 0.00 | 76 | 1011.5 |
| 20260506021531 | 61 | 100 | 8.0 | 17.0 | 0.00 | 0.00 | 0.00 | 77 | 1011.5 |
| 20260506021030 | 60 | 57 | 8.0 | 17.0 | 0.00 | 0.00 | 0.00 | 77 | 1011.5 |
| 20260506020528 | 60 | 109 | 7.0 | 18.0 | 0.00 | 0.00 | 0.00 | 77 | 1011.4 |
| 20260506020129 | 60 | 75 | 10.0 | 18.0 | 0.00 | 0.00 | 0.00 | 77 | 1011.5 |
| 20260506015528 | 60 | 78 | 9.0 | 17.0 | 0.00 | 0.00 | 0.00 | 77 | 1011.4 |
| 20260506015029 | 60 | 95 | 4.0 | 18.0 | 0.00 | 0.00 | 0.00 | 77 | 1011.4 |
| 20260506014527 | 60 | 51 | 9.0 | 18.0 | 0.00 | 0.00 | 0.00 | 77 | 1011.4 |
| 20260506014025 | 60 | 61 | 8.0 | 18.0 | 0.00 | 0.00 | 0.00 | 76 | 1011.3 |
| 20260506013525 | 60 | 15 | 10.0 | 19.0 | 0.00 | 0.00 | 0.00 | 76 | 1011.3 |
| 20260506013029 | 60 | 95 | 8.0 | 21.0 | 0.00 | 0.00 | 0.00 | 76 | 1011.2 |
| 20260506012524 | 60 | 76 | 7.0 | 19.0 | 0.00 | 0.00 | 0.00 | 76 | 1011.0 |
| 20260506012025 | 60 | 109 | 10.0 | 19.0 | 0.00 | 0.00 | 0.00 | 76 | 1011.1 |
| 20260506011554 | 60 | 78 | 9.0 | 18.0 | 0.00 | 0.00 | 0.00 | 75 | 1011.1 |
| 20260506011021 | 61 | 90 | 7.0 | 20.0 | 0.00 | 0.00 | 0.00 | 75 | 1011.1 |
| 20260506010520 | 61 | 80 | 10.0 | 20.0 | 0.00 | 0.00 | 0.00 | 75 | 1011.1 |
| 20260506010020 | 61 | 95 | 6.0 | 20.0 | 0.00 | 0.00 | 0.00 | 75 | 1011.0 |
| 20260506005518 | 61 | 42 | 8.0 | 20.0 | 0.00 | 0.00 | 0.00 | 74 | 1010.9 |
| 20260506005017 | 61 | 84 | 10.0 | 21.0 | 0.00 | 0.00 | 0.00 | 74 | 1010.8 |
| 20260506004515 | 61 | 57 | 7.0 | 21.0 | 0.00 | 0.00 | 0.00 | 75 | 1010.7 |
| 20260506004013 | 61 | 95 | 7.0 | 19.0 | 0.00 | 0.00 | 0.00 | 74 | 1010.5 |
| 20260506003513 | 61 | 58 | 6.0 | 19.0 | 0.00 | 0.00 | 0.00 | 74 | 1010.4 |
| 20260506003016 | 61 | 79 | 5.0 | 15.0 | 0.00 | 0.00 | 0.00 | 74 | 1010.4 |
| 20260506002514 | 61 | 56 | 8.0 | 17.0 | 0.00 | 0.00 | 0.00 | 74 | 1010.3 |
| 20260506002013 | 61 | 90 | 7.0 | 17.0 | 0.00 | 0.00 | 0.00 | 74 | 1010.3 |
| 20260506001510 | 61 | 66 | 8.0 | 19.0 | 0.00 | 0.00 | 0.00 | 74 | 1010.2 |
| 20260506001010 | 61 | 52 | 9.0 | 19.0 | 0.00 | 0.00 | 0.00 | 74 | 1010.0 |
| 20260506000514 | 61 | 75 | 8.0 | 17.0 | 0.00 | 0.00 | 0.00 | 73 | 1009.9 |
| 20260506000007 | 61 | 100 | 10.0 | 21.0 | 0.00 | 0.00 | 0.00 | 73 | 1009.9 |
| 20260505235507 | 62 | 146 | 9.0 | 24.0 | 0.00 | 0.00 | 0.00 | 73 | 1009.9 |
| 20260505235005 | 62 | 63 | 5.0 | 24.0 | 0.00 | 0.00 | 0.00 | 73 | 1009.9 |
| 20260505234506 | 62 | 64 | 7.0 | 23.0 | 0.00 | 0.00 | 0.00 | 72 | 1009.9 |
| 20260505234103 | 63 | 95 | 10.0 | 23.0 | 0.00 | 0.00 | 0.00 | 72 | 1009.9 |
| 20260505233601 | 63 | 184 | 7.0 | 24.0 | 0.00 | 0.00 | 0.00 | 72 | 1009.7 |
| 20260505233103 | 63 | 90 | 9.0 | 24.0 | 0.00 | 0.00 | 0.00 | 71 | 1009.4 |
| 20260505232600 | 63 | 80 | 11.0 | 21.0 | 0.00 | 0.00 | 0.00 | 71 | 1009.3 |
| 20260505232058 | 64 | 71 | 9.0 | 22.0 | 0.00 | 0.00 | 0.00 | 70 | 1009.4 |
| 20260505231612 | 64 | 62 | 8.0 | 22.0 | 0.00 | 0.00 | 0.00 | 70 | 1009.4 |
| 20260505231056 | 64 | 37 | 10.0 | 19.0 | 0.00 | 0.00 | 0.00 | 69 | 1009.3 |
| 20260505230554 | 65 | 71 | 8.0 | 22.0 | 0.00 | 0.00 | 0.00 | 69 | 1009.1 |
| 20260505230105 | 65 | 95 | 8.0 | 22.0 | 0.00 | 0.00 | 0.00 | 68 | 1008.8 |
| 20260505225556 | 65 | 136 | 11.0 | 20.0 | 0.00 | 0.00 | 0.00 | 69 | 1008.7 |
| 20260505225052 | 65 | 34 | 12.0 | 21.0 | 0.00 | 0.00 | 0.00 | 68 | 1008.8 |
| 20260505224551 | 65 | 82 | 10.0 | 21.0 | 0.00 | 0.00 | 0.00 | 68 | 1008.8 |
| 20260505224049 | 66 | 59 | 6.0 | 16.0 | 0.00 | 0.00 | 0.00 | 68 | 1009.2 |
| 20260505223553 | 66 | 9 | 8.0 | 23.0 | 0.00 | 0.00 | 0.00 | 67 | 1009.2 |
| 20260505223048 | 66 | 62 | 10.0 | 25.0 | 0.00 | 0.00 | 0.00 | 67 | 1009.1 |
| 20260505222547 | 66 | 49 | 12.0 | 25.0 | 0.00 | 0.00 | 0.00 | 67 | 1009.0 |
| 20260505222046 | 66 | 105 | 6.0 | 14.0 | 0.00 | 0.00 | 0.00 | 67 | 1009.1 |
| 20260505221554 | 67 | 56 | 6.0 | 14.0 | 0.00 | 0.00 | 0.00 | 67 | 1009.1 |
| 20260505221043 | 67 | 67 | 8.0 | 18.0 | 0.00 | 0.00 | 0.00 | 66 | 1009.1 |
| 20260505220542 | 67 | 78 | 10.0 | 18.0 | 0.00 | 0.00 | 0.00 | 65 | 1009.0 |
| 20260505220044 | 68 | 59 | 4.0 | 16.0 | 0.00 | 0.00 | 0.00 | 67 | 1008.9 |
| 20260505215540 | 68 | 126 | 7.0 | 17.0 | 0.00 | 0.00 | 0.00 | 66 | 1009.0 |
| 20260505215039 | 68 | 68 | 6.0 | 17.0 | 0.00 | 0.00 | 0.00 | 65 | 1008.9 |
| 20260505214538 | 68 | 109 | 7.0 | 20.0 | 0.00 | 0.00 | 0.00 | 64 | 1008.9 |
| 20260505214040 | 68 | 71 | 6.0 | 19.0 | 0.00 | 0.00 | 0.00 | 65 | 1008.8 |
| 20260505213535 | 68 | 95 | 7.0 | 17.0 | 0.00 | 0.00 | 0.00 | 64 | 1008.8 |
| 20260505213037 | 69 | 60 | 9.0 | 22.0 | 0.00 | 0.00 | 0.00 | 63 | 1008.9 |
| 20260505212532 | 70 | 51 | 8.0 | 22.0 | 0.00 | 0.00 | 0.00 | 62 | 1008.9 |
| 20260505212031 | 70 | 87 | 7.0 | 20.0 | 0.00 | 0.00 | 0.00 | 62 | 1008.9 |
| 20260505211536 | 70 | 68 | 9.0 | 20.0 | 0.00 | 0.00 | 0.00 | 60 | 1008.8 |
| 20260505211030 | 71 | 49 | 8.0 | 16.0 | 0.00 | 0.00 | 0.00 | 60 | 1008.6 |
| 20260505210530 | 71 | 119 | 6.0 | 18.0 | 0.00 | 0.00 | 0.00 | 61 | 1008.8 |
| 20260505210031 | 71 | 69 | 9.0 | 18.0 | 0.00 | 0.00 | 0.00 | 60 | 1008.8 |
| 20260505205527 | 71 | 79 | 8.0 | 17.0 | 0.00 | 0.00 | 0.00 | 61 | 1008.8 |
| 20260505205126 | 71 | 0.0 | 0.0 | 0.00 | 0.00 | 0.00 | 1008.8 | ||
| 20260505203551 | 72 | 69 | 9.0 | 19.0 | 0.00 | 0.00 | 0.00 | 60 | 1008.9 |
| 20260505203059 | 72 | 69 | 6.0 | 18.0 | 0.00 | 0.00 | 0.00 | 59 | 1008.9 |
| 20260505202551 | 73 | 88 | 6.0 | 18.0 | 0.00 | 0.00 | 0.00 | 60 | 1008.9 |
| 20260505202051 | 73 | 49 | 6.0 | 20.0 | 0.00 | 0.00 | 0.00 | 60 | 1008.9 |
| 20260505201550 | 73 | 117 | 8.0 | 20.0 | 0.00 | 0.00 | 0.00 | 59 | 1009.0 |
| 20260505201049 | 74 | 72 | 8.0 | 16.0 | 0.00 | 0.00 | 0.00 | 58 | 1008.9 |
| 20260505200551 | 74 | 112 | 5.0 | 15.0 | 0.00 | 0.00 | 0.00 | 59 | 1008.8 |
| 20260505200049 | 74 | 95 | 8.0 | 15.0 | 0.00 | 0.00 | 0.00 | 58 | 1008.8 |
| 20260505195649 | 74 | 80 | 4.0 | 14.0 | 0.00 | 0.00 | 0.00 | 58 | 1008.8 |
| 20260505195048 | 75 | 130 | 5.0 | 18.0 | 0.00 | 0.00 | 0.00 | 57 | 1008.8 |
| 20260505194604 | 75 | 105 | 6.0 | 19.0 | 0.00 | 0.00 | 0.00 | 59 | 1008.8 |
| 20260505194047 | 75 | 95 | 6.0 | 20.0 | 0.00 | 0.00 | 0.00 | 59 | 1008.9 |
| 20260505193548 | 74 | 69 | 6.0 | 17.0 | 0.00 | 0.00 | 0.00 | 59 | 1008.9 |
| 20260505193046 | 74 | 13 | 10.0 | 18.0 | 0.00 | 0.00 | 0.00 | 58 | 1008.9 |
| 20260505192546 | 74 | 100 | 6.0 | 15.0 | 0.00 | 0.00 | 0.00 | 59 | 1009.0 |
| 20260505192046 | 74 | 73 | 7.0 | 18.0 | 0.00 | 0.00 | 0.00 | 60 | 1008.9 |
| 20260505191555 | 74 | 65 | 9.0 | 18.0 | 0.00 | 0.00 | 0.00 | 58 | 1009.1 |
| 20260505191045 | 74 | 62 | 10.0 | 17.0 | 0.00 | 0.00 | 0.00 | 59 | 1008.9 |
| 20260505190547 | 75 | 56 | 4.0 | 21.0 | 0.00 | 0.00 | 0.00 | 59 | 1009.1 |
| 20260505190044 | 75 | 76 | 6.0 | 21.0 | 0.00 | 0.00 | 0.00 | 58 | 1009.0 |
| 20260505185545 | 76 | 87 | 5.0 | 18.0 | 0.00 | 0.00 | 0.00 | 57 | 1009.1 |
| 20260505185044 | 76 | 90 | 10.0 | 18.0 | 0.00 | 0.00 | 0.00 | 55 | 1009.1 |
| 20260505184544 | 76 | 59 | 10.0 | 18.0 | 0.00 | 0.00 | 0.00 | 57 | 1009.1 |
| 20260505184043 | 76 | 82 | 7.0 | 18.0 | 0.00 | 0.00 | 0.00 | 55 | 1009.2 |
| 20260505183542 | 76 | 95 | 5.0 | 19.0 | 0.00 | 0.00 | 0.00 | 55 | 1009.1 |
| 20260505183042 | 76 | 85 | 9.0 | 17.0 | 0.00 | 0.00 | 0.00 | 54 | 1009.0 |